Regional Weather Roundup
Issued by NWS Northern Indiana

Home | Current Version | Previous Version | Text Only | Print | Product List | Glossary On
Versions: 1 2 3 4 5 6 7 8 9 10 11 12 13 14 15 16 17 18 19 20 21 22 23 24 25 26 27 28 29 30 31 32 33 34 35 36 37 38 39 40 41 42 43 44 45 46 47 48 49 50
000
ASUS43 KIWX 191010
RWRIWX

KIWX WEATHER ROUNDUP
NATIONAL WEATHER SERVICE NORTHERN INDIANA
500 AM EST FRI DEC 19 2014

NOTE: "FAIR" INDICATES FEW OR NO CLOUDS BELOW 12,000 FEET WITH NO
SIGNIFICANT WEATHER AND/OR OBSTRUCTIONS TO VISIBILITY.

* THESE STATIONS ARE NOT UNDER NWS QUALITY CONTROL. THEY ALSO MAY NOT
  REPORT WEATHER SUCH AS PRECIPITATION OR FOG.

INZ001>027-191100-
NORTHERN INDIANA

CITY           SKY/WX    TMP DP  RH WIND       PRES   REMARKS
VALPARAISO     CLOUDY    27  22  81 W8        30.25F WCI  19
MICHIGAN CITY* CLOUDY    28  21  74 S3        30.24F
LAPORTE*       CLOUDY    29  26  86 W9        30.24F WCI  21
KNOX*          CLOUDY    27  21  80 W6        30.24F WCI  20
SOUTH BEND     CLOUDY    28  23  81 W5        30.24S WCI  23
GOSHEN         CLOUDY    26  23  88 W6        30.23S WCI  19
MONTICELLO*    CLOUDY    25  21  87 W3        30.26S
LOGANSPORT*    CLOUDY    27  19  74 W5        30.26F WCI  21
ROCHESTER*     MOCLDY    28  25  86 W6        30.25S WCI  22
WARSAW*        CLOUDY    27  23  86 W6        30.23F FOG     WCI  20
ANGOLA*        CLOUDY    27  25  93 W5        30.20S WCI  21
FORT WAYNE     CLOUDY    27  21  78 W8        30.24S WCI  19
HUNTINGTON*    CLOUDY    26  21  83 W5        30.24S WCI  20
PERU/GRISSOM   CLOUDY    26  25  98 NW7       30.24F WCI  18
MARION*        CLOUDY    26  22  86 NW6       30.25F WCI  19

$$
INZ028>050-191100-
CENTRAL INDIANA

CITY           SKY/WX    TMP DP  RH WIND       PRES   REMARKS
LAFAYETTE      CLOUDY    19  17  92 W3        30.28S
KOKOMO*        CLOUDY    27  19  74 NW9       30.25S WCI  17
MUNCIE*        CLOUDY    26  20  77 W5        30.24R WCI  20
INDIANAPOLIS   PTCLDY    20  17  88 W5        30.25F WCI  13

$$
MIZ043>046-050>051-056>058-064>065-071>073-077>080-191100-
SOUTHWEST LOWER MICHIGAN

CITY           SKY/WX    TMP DP  RH WIND       PRES   REMARKS
BATTLE CREEK   CLOUDY    29  26  89 W3        30.21S FOG
BENTON HARBOR  CLOUDY    31  24  75 VRB5      30.23F WCI  26
COLDWATER*     CLOUDY    27  25  92 W8        30.20S WCI  19
HILLSDALE*     CLOUDY    28  27  98 W7        30.18S FOG     WCI  20
HOLLAND        CLEAR     25  19  78 CALM      30.25R
GRAND RAPIDS   CLOUDY    28  20  71 NW5       30.23R WCI  23
KALAMAZOO      CLOUDY    29  25  85 N7        30.22S WCI  22
STURGIS*       CLOUDY    27  25  93 SW3       30.21S
THREE RIVERS*  CLOUDY    28  25  87 W3        30.22F

$$
OHZ001>008-015>018-024>025-191100-
NORTHWEST OHIO

CITY           SKY/WX    TMP DP  RH WIND       PRES   REMARKS
WAUSEON*       CLOUDY    28  27  93 W7        30.21S WCI  21
DEFIANCE       CLOUDY    29  23  78 W3        30.23S
FINDLAY        CLOUDY    29  24  82 W7        30.20F WCI  22
TOLEDO EXPRESS CLOUDY    28  24  85 W7        30.21S WCI  21
TOLEDO METCALF CLOUDY    30  25  81 W8        30.22S WCI  22
LIMA           CLOUDY    30  23  75 W8        30.21S HAZE    WCI  22

$$
AND FOR LAKE MICHIGAN COASTAL AND OPEN LAKE BUOY OBSERVATIONS

STATION/POSITION TEMP    WIND        PRES    VSBY  WAVE
                 AIR SEA DIR/SP/G                  HT/PER
                 (F)     (DEG/KT/KT) (MB)    (MI)  (FT/S)
CALUMET HARBOR    29     290/  6/  9 1023.6R
SAINT JOSEPH      33     340/ 11/ 13 1024.4R

$$
&&


USA.gov is the U.S. government's official web portal to all federal, state and local government web resources and services.